Weather in Lugovoye

Russia / Ivanovo Oblast     57°25′03″N   42°13′34″E
temp.,
°C
wind,
m/s
gust,
m/s
humid.,
%
clouds,
%
prec.,
mm/h
press.,
hPa
HPBL,
m
4 march, thu
thu400:00−2wsw4119393 0.1 1000647
03:00−2wsw5119696 0.4 998647
06:00−1sw51297100 1.4 993685
09:000wnw61197100 3.9 991956
12:00−1wnw7128180 1.3 9921350
15:00−2nw6108290 1.5 9951214
18:00−6wnw398894 0.1 997233
21:00−10nw349263 0.1 99983
5 march, fri
fri500:00−12nw23930 0.0 100021
03:00−13w23960 0.0 100224
06:00−14w239740 0.0 100351
09:00−11w369441 0.0 1004244
12:00−6wnw369098 0.0 1004612
15:00−5wnw4686100 0.1 1006920
18:00−7wnw4994100 0.4 1008391
21:00−12nw31091100 0.6 1011323
6 march, sat
sat600:00−17nw339621 0.0 101353
03:00−18wnw239611 0.0 101524
06:00−20wnw239917 0.0 101521
09:00−16wnw239543 0.0 1016155
12:00−11wnw238692 0.1 1016639
15:00−10wnw348496 0.2 1015858
18:00−14w239399 0.1 101431
21:00−17wsw239556 0.1 101422
7 march, sun
sun700:00−17ssw33970 0.0 101260
03:00−15ssw499446 0.1 1009231
06:00−12ssw5139170 0.0 1005450
09:00−9ssw6139485 0.8 1001700
12:00−7ssw71293100 1.2 996916
15:00−5ssw61194100 2.4 992974
18:00−5s4996100 1.4 991637
21:00−8nw71489100 3.1 9921012
8 march, mon
mon800:00−12w4108592 0.1 993266
03:00−16sw339346 0.1 99348
06:00−12ssw259698 0.1 993130
09:00−8ssw259499 0.4 994356
12:00−5sw1192100 0.8 994395
15:00−5n3593100 1.3 996495
18:00−9nw3789100 0.2 999173
21:00−10nw4994100 0.3 1003393